Year,Month,Day,Hour,Minute,Value (Times are PST for temperature in C)
2015,07,04,00,00,21.60
2015,07,04,00,01,21.60
2015,07,04,00,02,21.60
2015,07,04,00,03,21.60
2015,07,04,00,04,21.60
2015,07,04,00,05,21.50
2015,07,04,00,06,21.50
2015,07,04,00,07,21.50
2015,07,04,00,08,21.40
2015,07,04,00,09,21.40
2015,07,04,00,10,21.40
2015,07,04,00,11,21.30
2015,07,04,00,12,21.30
2015,07,04,00,13,21.30
2015,07,04,00,14,21.30
2015,07,04,00,15,21.30
2015,07,04,00,16,21.30
2015,07,04,00,17,21.20
2015,07,04,00,18,21.20
2015,07,04,00,19,21.20
2015,07,04,00,20,21.20
2015,07,04,00,21,21.20
2015,07,04,00,22,21.20
2015,07,04,00,23,21.10
2015,07,04,00,24,21.10
2015,07,04,00,25,21.10
2015,07,04,00,26,21.10
2015,07,04,00,27,21.00
2015,07,04,00,28,21.00
2015,07,04,00,29,20.90
2015,07,04,00,30,20.90
2015,07,04,00,31,20.90
2015,07,04,00,32,20.90
2015,07,04,00,33,20.80
2015,07,04,00,34,20.80
2015,07,04,00,35,20.80
2015,07,04,00,36,20.80
2015,07,04,00,37,20.80
2015,07,04,00,38,20.80
2015,07,04,00,39,20.80
2015,07,04,00,40,20.80
2015,07,04,00,41,20.80
2015,07,04,00,42,20.80
2015,07,04,00,43,20.80
2015,07,04,00,44,20.70
2015,07,04,00,45,20.70
2015,07,04,00,46,20.70
2015,07,04,00,47,20.70
2015,07,04,00,48,20.70
2015,07,04,00,49,20.70
2015,07,04,00,50,20.70
2015,07,04,00,51,20.70
2015,07,04,00,52,20.70
2015,07,04,00,53,20.70
2015,07,04,00,54,20.70
2015,07,04,00,55,20.70
2015,07,04,00,56,20.70
2015,07,04,00,57,20.70
2015,07,04,00,58,20.60
2015,07,04,00,59,20.60
2015,07,04,01,00,20.60
2015,07,04,01,01,20.60
2015,07,04,01,02,20.50
2015,07,04,01,03,20.50
2015,07,04,01,04,20.50
2015,07,04,01,05,20.50
2015,07,04,01,06,20.50
2015,07,04,01,07,20.50
2015,07,04,01,08,20.50
2015,07,04,01,09,20.50
2015,07,04,01,10,20.40
2015,07,04,01,11,20.40
2015,07,04,01,12,20.40
2015,07,04,01,13,20.40
2015,07,04,01,14,20.40
2015,07,04,01,15,20.40
2015,07,04,01,16,20.40
2015,07,04,01,17,20.40
2015,07,04,01,18,20.40
2015,07,04,01,19,20.30
2015,07,04,01,20,20.30
2015,07,04,01,21,20.30
2015,07,04,01,22,20.20
2015,07,04,01,23,20.20
2015,07,04,01,24,20.20
2015,07,04,01,25,20.10
2015,07,04,01,26,20.10
2015,07,04,01,27,20.00
2015,07,04,01,28,19.90
2015,07,04,01,29,19.90
2015,07,04,01,30,19.90
2015,07,04,01,31,19.80
2015,07,04,01,32,19.80
2015,07,04,01,33,19.80
2015,07,04,01,34,19.80
2015,07,04,01,35,19.80
2015,07,04,01,36,19.80
2015,07,04,01,37,19.70
2015,07,04,01,38,19.70
2015,07,04,01,39,19.70
2015,07,04,01,40,19.70
2015,07,04,01,41,19.60
2015,07,04,01,42,19.60
2015,07,04,01,43,19.60
2015,07,04,01,44,19.60
2015,07,04,01,45,19.60
2015,07,04,01,46,19.60
2015,07,04,01,47,19.60
2015,07,04,01,48,19.60
2015,07,04,01,49,19.60
2015,07,04,01,50,19.50
2015,07,04,01,51,19.50
2015,07,04,01,52,19.50
2015,07,04,01,53,19.50
2015,07,04,01,54,19.40
2015,07,04,01,55,19.50
2015,07,04,01,56,19.50
2015,07,04,01,57,19.50
2015,07,04,01,58,19.50
2015,07,04,01,59,19.50
2015,07,04,02,00,19.50
2015,07,04,02,01,19.50
2015,07,04,02,02,19.50
2015,07,04,02,03,19.50
2015,07,04,02,04,19.50
2015,07,04,02,05,19.50
2015,07,04,02,06,19.50
2015,07,04,02,07,19.40
2015,07,04,02,08,19.40
2015,07,04,02,09,19.40
2015,07,04,02,10,19.40
2015,07,04,02,11,19.40
2015,07,04,02,12,19.40
2015,07,04,02,13,19.30
2015,07,04,02,14,19.30
2015,07,04,02,15,19.30
2015,07,04,02,16,19.20
2015,07,04,02,17,19.20
2015,07,04,02,18,19.20
2015,07,04,02,19,19.20
2015,07,04,02,20,19.20
2015,07,04,02,21,19.20
2015,07,04,02,22,19.20
2015,07,04,02,23,19.20
2015,07,04,02,24,19.20
2015,07,04,02,25,19.20
2015,07,04,02,26,19.20
2015,07,04,02,27,19.20
2015,07,04,02,28,19.20
2015,07,04,02,29,19.20
2015,07,04,02,30,19.20
2015,07,04,02,31,19.10
2015,07,04,02,32,19.10
2015,07,04,02,33,19.10
2015,07,04,02,34,19.00
2015,07,04,02,35,19.00
2015,07,04,02,36,19.00
2015,07,04,02,37,18.90
2015,07,04,02,38,18.90
2015,07,04,02,39,18.90
2015,07,04,02,40,18.90
2015,07,04,02,41,18.90
2015,07,04,02,42,18.90
2015,07,04,02,43,18.80
2015,07,04,02,44,18.80
2015,07,04,02,45,18.80
2015,07,04,02,46,18.80
2015,07,04,02,47,18.80
2015,07,04,02,48,18.70
2015,07,04,02,49,18.70
2015,07,04,02,50,18.70
2015,07,04,02,51,18.70
2015,07,04,02,52,18.70
2015,07,04,02,53,18.70
2015,07,04,02,54,18.70
2015,07,04,02,55,18.70
2015,07,04,02,56,18.70
2015,07,04,02,57,18.70
2015,07,04,02,58,18.70
2015,07,04,02,59,18.60
2015,07,04,03,00,18.60
2015,07,04,03,01,18.60
2015,07,04,03,02,18.60
2015,07,04,03,06,18.60
2015,07,04,03,07,18.60
2015,07,04,03,08,18.60
2015,07,04,03,09,18.60
2015,07,04,03,10,18.50
2015,07,04,03,11,18.50
2015,07,04,03,12,18.50
2015,07,04,03,13,18.40
2015,07,04,03,14,18.40
2015,07,04,03,15,18.40
2015,07,04,03,16,18.40
2015,07,04,03,17,18.40
2015,07,04,03,18,18.40
2015,07,04,03,19,18.40
2015,07,04,03,20,18.40
2015,07,04,03,21,18.40
2015,07,04,03,22,18.30
2015,07,04,03,23,18.30
2015,07,04,03,24,18.30
2015,07,04,03,25,18.30
2015,07,04,03,26,18.30
2015,07,04,03,27,18.30
2015,07,04,03,28,18.30
2015,07,04,03,29,18.30
2015,07,04,03,30,18.20
2015,07,04,03,31,18.20
2015,07,04,03,32,18.20
2015,07,04,03,33,18.20
2015,07,04,03,34,18.10
2015,07,04,03,35,18.10
2015,07,04,03,36,18.10
2015,07,04,03,37,18.00
2015,07,04,03,38,18.00
2015,07,04,03,39,18.00
2015,07,04,03,40,17.90
2015,07,04,03,41,17.90
2015,07,04,03,42,17.90
2015,07,04,03,43,17.80
2015,07,04,03,44,17.80
2015,07,04,03,45,17.80
2015,07,04,03,46,17.80
2015,07,04,03,47,17.80
2015,07,04,03,48,17.70
2015,07,04,03,49,17.70
2015,07,04,03,50,17.70
2015,07,04,03,51,17.70
2015,07,04,03,52,17.70
2015,07,04,03,53,17.60
2015,07,04,03,54,17.60
2015,07,04,03,55,17.60
2015,07,04,03,56,17.60
2015,07,04,03,57,17.60
2015,07,04,03,58,17.60
2015,07,04,03,59,17.60
2015,07,04,04,00,17.60
2015,07,04,04,01,17.60
2015,07,04,04,02,17.60
2015,07,04,04,03,17.50
2015,07,04,04,04,17.50
2015,07,04,04,05,17.50
2015,07,04,04,06,17.50
2015,07,04,04,07,17.40
2015,07,04,04,08,17.40
2015,07,04,04,09,17.40
2015,07,04,04,10,17.40
2015,07,04,04,11,17.40
2015,07,04,04,12,17.40
2015,07,04,04,13,17.40
2015,07,04,04,14,17.40
2015,07,04,04,15,17.40
2015,07,04,04,16,17.40
2015,07,04,04,17,17.40
2015,07,04,04,18,17.40
2015,07,04,04,19,17.40
2015,07,04,04,20,17.40
2015,07,04,04,21,17.40
2015,07,04,04,22,17.40
2015,07,04,04,23,17.30
2015,07,04,04,24,17.30
2015,07,04,04,25,17.30
2015,07,04,04,26,17.30
2015,07,04,04,27,17.30
2015,07,04,04,28,17.20
2015,07,04,04,29,17.20
2015,07,04,04,30,17.20
2015,07,04,04,31,17.20
2015,07,04,04,32,17.20
2015,07,04,04,33,17.10
2015,07,04,04,34,17.10
2015,07,04,04,35,17.10
2015,07,04,04,36,17.10
2015,07,04,04,37,17.10
2015,07,04,04,38,17.10
2015,07,04,04,39,17.10
2015,07,04,04,40,17.10
2015,07,04,04,41,17.10
2015,07,04,04,42,17.10
2015,07,04,04,43,17.10
2015,07,04,04,44,17.10
2015,07,04,04,45,17.10
2015,07,04,04,46,17.10
2015,07,04,04,47,17.10
2015,07,04,04,48,17.00
2015,07,04,04,49,17.00
2015,07,04,04,50,17.00
2015,07,04,04,51,17.00
2015,07,04,04,52,17.00
2015,07,04,04,53,17.00
2015,07,04,04,54,17.00
2015,07,04,04,55,16.90
2015,07,04,04,56,16.90
2015,07,04,04,57,16.90
2015,07,04,04,58,16.90
2015,07,04,04,59,16.90
2015,07,04,05,00,16.90
2015,07,04,05,01,16.90
2015,07,04,05,02,16.90
2015,07,04,05,03,16.90
2015,07,04,05,04,16.90
2015,07,04,05,05,16.90
2015,07,04,05,06,16.90
2015,07,04,05,07,16.90
2015,07,04,05,08,16.80
2015,07,04,05,09,16.80
2015,07,04,05,10,16.80
2015,07,04,05,11,16.80
2015,07,04,05,12,16.80
2015,07,04,05,13,16.80
2015,07,04,05,14,16.80
2015,07,04,05,15,16.80
2015,07,04,05,16,16.70
2015,07,04,05,17,16.70
2015,07,04,05,18,16.70
2015,07,04,05,19,16.70
2015,07,04,05,20,16.70
2015,07,04,05,21,16.70
2015,07,04,05,22,16.70
2015,07,04,05,23,16.70
2015,07,04,05,24,16.70
2015,07,04,05,25,16.70
2015,07,04,05,26,16.60
2015,07,04,05,27,16.60
2015,07,04,05,28,16.60
2015,07,04,05,29,16.60
2015,07,04,05,30,16.60
2015,07,04,05,31,16.60
2015,07,04,05,32,16.60
2015,07,04,05,33,16.60
2015,07,04,05,34,16.60
2015,07,04,05,35,16.60
2015,07,04,05,36,16.50
2015,07,04,05,37,16.50
2015,07,04,05,38,16.50
2015,07,04,05,39,16.40
2015,07,04,05,40,16.40
2015,07,04,05,41,16.40
2015,07,04,05,42,16.40
2015,07,04,05,43,16.30
2015,07,04,05,44,16.30
2015,07,04,05,45,16.30
2015,07,04,05,46,16.30
2015,07,04,05,47,16.30
2015,07,04,05,48,16.30
2015,07,04,05,49,16.30
2015,07,04,05,50,16.30
2015,07,04,05,51,16.30
2015,07,04,05,52,16.40
2015,07,04,05,53,16.30
2015,07,04,05,54,16.40
2015,07,04,05,55,16.40
2015,07,04,05,56,16.40
2015,07,04,05,57,16.40
2015,07,04,05,58,16.40
2015,07,04,05,59,16.40
2015,07,04,06,00,16.40
2015,07,04,06,01,16.40
2015,07,04,06,02,16.40
2015,07,04,06,03,16.50
2015,07,04,06,04,16.40
2015,07,04,06,05,16.40
2015,07,04,06,06,16.50
2015,07,04,06,07,16.50
2015,07,04,06,08,16.50
2015,07,04,06,09,16.50
2015,07,04,06,10,16.40
2015,07,04,06,11,16.40
2015,07,04,06,12,16.40
2015,07,04,06,13,16.40
2015,07,04,06,14,16.40
2015,07,04,06,15,16.40
2015,07,04,06,16,16.40
2015,07,04,06,17,16.40
2015,07,04,06,18,16.30
2015,07,04,06,19,16.30
2015,07,04,06,20,16.30
2015,07,04,06,21,16.30
2015,07,04,06,22,16.30
2015,07,04,06,23,16.30
2015,07,04,06,24,16.30
2015,07,04,06,25,16.30
2015,07,04,06,26,16.20
2015,07,04,06,27,16.20
2015,07,04,06,28,16.20
2015,07,04,06,29,16.20
2015,07,04,06,30,16.20
2015,07,04,06,31,16.20
2015,07,04,06,32,16.30
2015,07,04,06,33,16.30
2015,07,04,06,34,16.30
2015,07,04,06,35,16.30
2015,07,04,06,36,16.40
2015,07,04,06,37,16.40
2015,07,04,06,38,16.50
2015,07,04,06,39,16.60
2015,07,04,06,40,16.60
2015,07,04,06,41,16.70
2015,07,04,06,42,16.70
2015,07,04,06,43,16.80
2015,07,04,06,44,16.90
2015,07,04,06,45,16.90
2015,07,04,06,46,17.00
2015,07,04,06,47,17.00
2015,07,04,06,48,17.10
2015,07,04,06,49,17.10
2015,07,04,06,50,17.20
2015,07,04,06,51,17.30
2015,07,04,06,52,17.40
2015,07,04,06,53,17.50
2015,07,04,06,54,17.60
2015,07,04,06,55,17.70
2015,07,04,06,56,17.80
2015,07,04,06,57,17.80
2015,07,04,06,58,17.90
2015,07,04,06,59,17.90
2015,07,04,07,00,17.90
2015,07,04,07,01,17.80
2015,07,04,07,02,17.80
2015,07,04,07,03,17.80
2015,07,04,07,04,17.80
2015,07,04,07,05,17.80
2015,07,04,07,06,17.80
2015,07,04,07,07,17.80
2015,07,04,07,08,17.80
2015,07,04,07,09,17.80
2015,07,04,07,10,17.80
2015,07,04,07,11,17.80
2015,07,04,07,12,17.80
2015,07,04,07,13,17.90
2015,07,04,07,14,17.90
2015,07,04,07,15,17.90
2015,07,04,07,16,17.90
2015,07,04,07,17,18.00
2015,07,04,07,18,18.00
2015,07,04,07,19,18.10
2015,07,04,07,20,18.20
2015,07,04,07,21,18.30
2015,07,04,07,22,18.30
2015,07,04,07,23,18.40
2015,07,04,07,24,18.40
2015,07,04,07,25,18.40
2015,07,04,07,26,18.50
2015,07,04,07,27,18.50
2015,07,04,07,28,18.50
2015,07,04,07,29,18.50
2015,07,04,07,30,18.60
2015,07,04,07,31,18.60
2015,07,04,07,32,18.60
2015,07,04,07,33,18.70
2015,07,04,07,34,18.70
2015,07,04,07,35,18.80
2015,07,04,07,36,18.90
2015,07,04,07,37,18.90
2015,07,04,07,38,19.00
2015,07,04,07,39,19.10
2015,07,04,07,40,19.20
2015,07,04,07,41,19.30
2015,07,04,07,42,19.50
2015,07,04,07,43,19.60
2015,07,04,07,44,19.70
2015,07,04,07,45,19.90
2015,07,04,07,46,20.00
2015,07,04,07,47,20.00
2015,07,04,07,48,20.00
2015,07,04,07,49,20.20
2015,07,04,07,50,20.20
2015,07,04,07,51,20.30
2015,07,04,07,52,20.30
2015,07,04,07,53,20.30
2015,07,04,07,54,20.40
2015,07,04,07,55,20.40
2015,07,04,07,56,20.50
2015,07,04,07,57,20.50
2015,07,04,07,58,20.60
2015,07,04,07,59,20.70
2015,07,04,08,00,20.70
2015,07,04,08,01,20.80
2015,07,04,08,02,20.80
2015,07,04,08,03,20.90
2015,07,04,08,04,20.90
2015,07,04,08,05,21.00
2015,07,04,08,06,21.00
2015,07,04,08,07,21.00
2015,07,04,08,08,21.10
2015,07,04,08,09,21.10
2015,07,04,08,10,21.10
2015,07,04,08,11,21.10
2015,07,04,08,12,21.10
2015,07,04,08,13,21.20
2015,07,04,08,14,21.20
2015,07,04,08,15,21.20
2015,07,04,08,16,21.20
2015,07,04,08,17,21.20
2015,07,04,08,18,21.20
2015,07,04,08,19,21.20
2015,07,04,08,20,21.20
2015,07,04,08,21,21.20
2015,07,04,08,22,21.20
2015,07,04,08,23,21.20
2015,07,04,08,24,21.30
2015,07,04,08,25,21.30
2015,07,04,08,26,21.40
2015,07,04,08,27,21.50
2015,07,04,08,28,21.50
2015,07,04,08,29,21.40
2015,07,04,08,30,21.40
2015,07,04,08,31,21.40
2015,07,04,08,32,21.40
2015,07,04,08,33,21.50
2015,07,04,08,34,21.50
2015,07,04,08,35,21.60
2015,07,04,08,36,21.60
2015,07,04,08,37,21.60
2015,07,04,08,38,21.60
2015,07,04,08,39,21.60
2015,07,04,08,40,21.70
2015,07,04,08,41,21.70
2015,07,04,08,42,21.80
2015,07,04,08,43,21.80
2015,07,04,08,44,21.80
2015,07,04,08,45,21.90
2015,07,04,08,46,21.90
2015,07,04,08,47,21.90
2015,07,04,08,48,21.90
2015,07,04,08,49,22.00
2015,07,04,08,50,22.00
2015,07,04,08,51,22.10
2015,07,04,08,52,22.10
2015,07,04,08,53,22.20
2015,07,04,08,54,22.30
2015,07,04,08,55,22.30
2015,07,04,08,56,22.40
2015,07,04,08,57,22.50
2015,07,04,08,58,22.60
2015,07,04,08,59,22.60
2015,07,04,09,00,22.70
2015,07,04,09,01,22.70
2015,07,04,09,02,22.70
2015,07,04,09,03,22.70
2015,07,04,09,04,22.70
2015,07,04,09,05,22.70
2015,07,04,09,06,22.80
2015,07,04,09,07,22.90
2015,07,04,09,08,23.00
2015,07,04,09,09,23.00
2015,07,04,09,10,23.10
2015,07,04,09,11,23.10
2015,07,04,09,12,23.10
2015,07,04,09,13,23.10
2015,07,04,09,14,23.20
2015,07,04,09,15,23.20
2015,07,04,09,16,23.20
2015,07,04,09,17,23.20
2015,07,04,09,18,23.20
2015,07,04,09,19,23.20
2015,07,04,09,20,23.30
2015,07,04,09,21,23.40
2015,07,04,09,22,23.50
2015,07,04,09,23,23.50
2015,07,04,09,24,23.60
2015,07,04,09,25,23.60
2015,07,04,09,26,23.70
2015,07,04,09,27,23.90
2015,07,04,09,28,23.90
2015,07,04,09,29,24.00
2015,07,04,09,30,24.10
2015,07,04,09,31,24.10
2015,07,04,09,32,24.20
2015,07,04,09,33,24.20
2015,07,04,09,34,24.20
2015,07,04,09,35,24.30
2015,07,04,09,36,24.30
2015,07,04,09,37,24.30
2015,07,04,09,38,24.30
2015,07,04,09,39,24.40
2015,07,04,09,40,24.50
2015,07,04,09,41,24.50
2015,07,04,09,42,24.60
2015,07,04,09,43,24.50
2015,07,04,09,44,24.40
2015,07,04,09,45,24.40
2015,07,04,09,46,24.30
2015,07,04,09,47,24.20
2015,07,04,09,48,24.20
2015,07,04,09,49,24.20
2015,07,04,09,50,24.30
2015,07,04,09,51,24.30
2015,07,04,09,52,24.30
2015,07,04,09,53,24.40
2015,07,04,09,54,24.40
2015,07,04,09,55,24.40
2015,07,04,09,56,24.30
2015,07,04,09,57,24.40
2015,07,04,09,58,24.40
2015,07,04,09,59,24.50
2015,07,04,10,00,24.60
2015,07,04,10,01,24.70
2015,07,04,10,02,24.80
2015,07,04,10,03,24.80
2015,07,04,10,04,24.80
2015,07,04,10,05,24.80
2015,07,04,10,06,25.20
2015,07,04,10,07,25.20
2015,07,04,10,08,25.30
2015,07,04,10,09,25.30
2015,07,04,10,10,25.30
2015,07,04,10,11,25.30
2015,07,04,10,12,25.40
2015,07,04,10,13,25.40
2015,07,04,10,14,25.50
2015,07,04,10,15,25.50
2015,07,04,10,16,25.70
2015,07,04,10,17,25.70
2015,07,04,10,18,25.80
2015,07,04,10,19,25.80
2015,07,04,10,20,25.90
2015,07,04,10,21,25.90
2015,07,04,10,22,26.00
2015,07,04,10,23,26.10
2015,07,04,10,24,26.10
2015,07,04,10,25,26.10
2015,07,04,10,26,26.10
2015,07,04,10,27,26.10
2015,07,04,10,28,26.10
2015,07,04,10,29,26.10
2015,07,04,10,30,26.40
2015,07,04,10,31,26.30
2015,07,04,10,32,26.10
2015,07,04,10,33,26.00
2015,07,04,10,34,25.90
2015,07,04,10,35,25.80
2015,07,04,10,36,25.70
2015,07,04,10,37,25.70
2015,07,04,10,38,25.70
2015,07,04,10,39,25.80
2015,07,04,10,40,25.80
2015,07,04,10,41,25.90
2015,07,04,10,42,26.00
2015,07,04,10,43,26.00
2015,07,04,10,44,26.10
2015,07,04,10,45,26.20
2015,07,04,10,46,26.30
2015,07,04,10,47,26.30
2015,07,04,10,48,26.40
2015,07,04,10,49,26.50
2015,07,04,10,50,26.60
2015,07,04,10,51,26.60
2015,07,04,10,52,26.70
2015,07,04,10,53,26.70
2015,07,04,10,54,26.80
2015,07,04,10,55,26.90
2015,07,04,10,56,26.90
2015,07,04,10,57,26.90
2015,07,04,10,58,26.90
2015,07,04,10,59,27.00
2015,07,04,11,00,27.00
2015,07,04,11,01,27.00
2015,07,04,11,02,27.00
2015,07,04,11,03,27.10
2015,07,04,11,04,27.10
2015,07,04,11,05,27.20
2015,07,04,11,06,27.20
2015,07,04,11,07,27.20
2015,07,04,11,08,27.30
2015,07,04,11,09,27.30
2015,07,04,11,10,27.30
2015,07,04,11,11,27.30
2015,07,04,11,12,27.40
2015,07,04,11,13,27.40
2015,07,04,11,14,27.50
2015,07,04,11,15,27.60
2015,07,04,11,16,27.70
2015,07,04,11,17,27.70
2015,07,04,11,18,27.80
2015,07,04,11,19,27.80
2015,07,04,11,20,27.90
2015,07,04,11,21,27.90
2015,07,04,11,22,28.00
2015,07,04,11,23,28.10
2015,07,04,11,24,28.10
2015,07,04,11,25,28.20
2015,07,04,11,26,28.30
2015,07,04,11,27,28.30
2015,07,04,11,28,28.40
2015,07,04,11,29,28.40
2015,07,04,11,30,28.40
2015,07,04,11,31,28.40
2015,07,04,11,32,28.40
2015,07,04,11,33,28.40
2015,07,04,11,34,28.40
2015,07,04,11,35,28.40
2015,07,04,11,36,28.30
2015,07,04,11,37,28.40
2015,07,04,11,38,28.40
2015,07,04,11,39,28.40
2015,07,04,11,40,28.40
2015,07,04,11,41,28.40
2015,07,04,11,42,28.50
2015,07,04,11,43,28.50
2015,07,04,11,44,28.50
2015,07,04,11,45,28.60
2015,07,04,11,46,28.60
2015,07,04,11,47,28.60
2015,07,04,11,48,28.70
2015,07,04,11,49,28.80
2015,07,04,11,50,28.90
2015,07,04,11,51,29.00
2015,07,04,11,52,29.00
2015,07,04,11,53,29.00
2015,07,04,11,54,29.10
2015,07,04,11,55,29.10
2015,07,04,11,56,29.20
2015,07,04,11,57,29.40
2015,07,04,11,58,29.40
2015,07,04,11,59,29.40
2015,07,04,12,00,29.40
2015,07,04,12,01,29.40
2015,07,04,12,02,29.40
2015,07,04,12,03,29.60
2015,07,04,12,04,29.70
2015,07,04,12,05,29.80
2015,07,04,12,06,29.90
2015,07,04,12,07,30.10
2015,07,04,12,08,30.20
2015,07,04,12,09,30.40
2015,07,04,12,10,30.50
2015,07,04,12,11,30.60
2015,07,04,12,12,30.60
2015,07,04,12,13,30.60
2015,07,04,12,14,30.70
2015,07,04,12,15,30.70
2015,07,04,12,16,30.70
2015,07,04,12,17,30.80
2015,07,04,12,18,30.90
2015,07,04,12,19,31.00
2015,07,04,12,20,31.20
2015,07,04,12,21,31.30
2015,07,04,12,22,31.40
2015,07,04,12,23,31.40
2015,07,04,12,24,31.40
2015,07,04,12,25,31.40
2015,07,04,12,26,31.40
2015,07,04,12,27,31.40
2015,07,04,12,28,31.40
2015,07,04,12,29,31.30
2015,07,04,12,30,31.30
2015,07,04,12,31,31.30
2015,07,04,12,32,31.30
2015,07,04,12,33,31.40
2015,07,04,12,34,31.50
2015,07,04,12,35,31.50
2015,07,04,12,36,31.60
2015,07,04,12,37,31.70
2015,07,04,12,38,31.70
2015,07,04,12,39,31.70
2015,07,04,12,40,31.80
2015,07,04,12,41,31.80
2015,07,04,12,42,31.90
2015,07,04,12,43,31.90
2015,07,04,12,44,31.90
2015,07,04,12,45,31.90
2015,07,04,12,46,31.90
2015,07,04,12,47,31.90
2015,07,04,12,48,31.80
2015,07,04,12,49,31.70
2015,07,04,12,50,31.70
2015,07,04,12,51,31.80
2015,07,04,12,52,31.80
2015,07,04,12,53,31.80
2015,07,04,12,54,31.80
2015,07,04,12,55,31.90
2015,07,04,12,56,31.90
2015,07,04,12,57,31.90
2015,07,04,12,58,31.90
2015,07,04,12,59,31.90
2015,07,04,13,00,31.90
2015,07,04,13,01,31.90
2015,07,04,13,02,31.80
2015,07,04,13,03,31.80
2015,07,04,13,04,31.80
2015,07,04,13,05,31.80
2015,07,04,13,06,31.90
2015,07,04,13,07,31.90
2015,07,04,13,08,32.00
2015,07,04,13,09,32.00
2015,07,04,13,10,32.10
2015,07,04,13,11,32.10
2015,07,04,13,12,32.00
2015,07,04,13,13,32.00
2015,07,04,13,14,32.10
2015,07,04,13,15,32.00
2015,07,04,13,16,32.10
2015,07,04,13,17,32.20
2015,07,04,13,18,32.30
2015,07,04,13,19,32.40
2015,07,04,13,20,32.40
2015,07,04,13,21,32.50
2015,07,04,13,22,32.50
2015,07,04,13,23,32.50
2015,07,04,13,24,32.60
2015,07,04,13,25,32.60
2015,07,04,13,26,32.60
2015,07,04,13,27,32.70
2015,07,04,13,28,32.70
2015,07,04,13,29,32.70
2015,07,04,13,30,32.60
2015,07,04,13,31,32.60
2015,07,04,13,32,32.70
2015,07,04,13,33,32.80
2015,07,04,13,34,32.80
2015,07,04,13,35,33.00
2015,07,04,13,36,33.10
2015,07,04,13,37,33.20
2015,07,04,13,38,33.20
2015,07,04,13,39,33.20
2015,07,04,13,40,33.10
2015,07,04,13,41,33.20
2015,07,04,13,42,33.20
2015,07,04,13,43,33.30
2015,07,04,13,44,33.30
2015,07,04,13,45,33.30
2015,07,04,13,46,33.40
2015,07,04,13,47,33.40
2015,07,04,13,48,33.40
2015,07,04,13,49,33.40
2015,07,04,13,50,33.30
2015,07,04,13,51,33.40
2015,07,04,13,52,33.40
2015,07,04,13,53,33.40
2015,07,04,13,54,33.40
2015,07,04,13,55,33.40
2015,07,04,13,56,33.30
2015,07,04,13,57,33.30
2015,07,04,13,58,33.20
2015,07,04,13,59,33.10
2015,07,04,14,00,33.10
2015,07,04,14,01,33.10
2015,07,04,14,02,33.10
2015,07,04,14,03,33.10
2015,07,04,14,04,33.10
2015,07,04,14,05,33.10
2015,07,04,14,06,33.10
2015,07,04,14,07,33.20
2015,07,04,14,08,33.30
2015,07,04,14,09,33.20
2015,07,04,14,10,33.10
2015,07,04,14,11,33.10
2015,07,04,14,12,33.10
2015,07,04,14,13,33.00
2015,07,04,14,14,33.10
2015,07,04,14,15,33.20
2015,07,04,14,16,33.30
2015,07,04,14,17,33.40
2015,07,04,14,18,33.50
2015,07,04,14,19,33.50
2015,07,04,14,20,33.60
2015,07,04,14,21,33.70
2015,07,04,14,22,33.80
2015,07,04,14,23,33.70
2015,07,04,14,24,33.70
2015,07,04,14,25,33.70
2015,07,04,14,26,33.70
2015,07,04,14,27,33.70
2015,07,04,14,28,33.60
2015,07,04,14,29,33.60
2015,07,04,14,30,33.50
2015,07,04,14,31,33.60
2015,07,04,14,32,33.70
2015,07,04,14,33,33.70
2015,07,04,14,34,33.80
2015,07,04,14,35,33.80
2015,07,04,14,36,33.90
2015,07,04,14,37,33.90
2015,07,04,14,38,34.00
2015,07,04,14,39,34.10
2015,07,04,14,40,34.10
2015,07,04,14,41,34.10
2015,07,04,14,42,34.10
2015,07,04,14,43,34.10
2015,07,04,14,44,34.00
2015,07,04,14,45,33.90
2015,07,04,14,46,33.80
2015,07,04,14,47,33.70
2015,07,04,14,48,33.70
2015,07,04,14,49,33.60
2015,07,04,14,50,33.60
2015,07,04,14,51,33.50
2015,07,04,14,52,33.40
2015,07,04,14,53,33.40
2015,07,04,14,54,33.60
2015,07,04,14,55,33.70
2015,07,04,14,56,33.80
2015,07,04,14,57,33.80
2015,07,04,14,58,33.90
2015,07,04,14,59,33.90
2015,07,04,15,00,33.90
2015,07,04,15,01,33.90
2015,07,04,15,02,33.80
2015,07,04,15,03,33.80
2015,07,04,15,04,33.90
2015,07,04,15,05,33.90
2015,07,04,15,06,34.00
2015,07,04,15,07,34.10
2015,07,04,15,08,34.30
2015,07,04,15,09,34.40
2015,07,04,15,10,34.50
2015,07,04,15,11,34.60
2015,07,04,15,12,34.60
2015,07,04,15,13,34.70
2015,07,04,15,14,34.70
2015,07,04,15,15,34.70
2015,07,04,15,16,34.70
2015,07,04,15,17,34.70
2015,07,04,15,18,34.70
2015,07,04,15,19,34.80
2015,07,04,15,20,34.80
2015,07,04,15,21,34.70
2015,07,04,15,22,34.60
2015,07,04,15,23,34.40
2015,07,04,15,24,34.30
2015,07,04,15,25,34.20
2015,07,04,15,26,34.20
2015,07,04,15,27,34.30
2015,07,04,15,28,34.40
2015,07,04,15,29,34.40
2015,07,04,15,30,34.60
2015,07,04,15,31,34.70
2015,07,04,15,32,34.80
2015,07,04,15,33,34.70
2015,07,04,15,34,34.60
2015,07,04,15,35,34.50
2015,07,04,15,36,34.50
2015,07,04,15,37,34.60
2015,07,04,15,38,34.60
2015,07,04,15,39,34.70
2015,07,04,15,40,34.70
2015,07,04,15,41,34.70
2015,07,04,15,42,34.60
2015,07,04,15,43,34.60
2015,07,04,15,44,34.60
2015,07,04,15,45,34.60
2015,07,04,15,46,34.50
2015,07,04,15,47,34.40
2015,07,04,15,48,34.20
2015,07,04,15,49,34.10
2015,07,04,15,50,34.00
2015,07,04,15,51,33.90
2015,07,04,15,52,33.80
2015,07,04,15,53,33.70
2015,07,04,15,54,33.70
2015,07,04,15,55,33.70
2015,07,04,15,56,33.80
2015,07,04,15,57,33.90
2015,07,04,15,58,34.00
2015,07,04,15,59,34.00
2015,07,04,16,00,34.10
2015,07,04,16,01,34.20
2015,07,04,16,02,34.30
2015,07,04,16,03,34.40
2015,07,04,16,04,34.50
2015,07,04,16,05,34.60
2015,07,04,16,06,34.60
2015,07,04,16,07,34.60
2015,07,04,16,08,34.50
2015,07,04,16,09,34.40
2015,07,04,16,10,34.30
2015,07,04,16,11,34.20
2015,07,04,16,12,34.20
2015,07,04,16,13,34.10
2015,07,04,16,14,34.00
2015,07,04,16,15,33.90
2015,07,04,16,16,33.90
2015,07,04,16,17,33.90
2015,07,04,16,18,33.90
2015,07,04,16,19,33.90
2015,07,04,16,20,33.90
2015,07,04,16,21,33.90
2015,07,04,16,22,33.90
2015,07,04,16,23,33.90
2015,07,04,16,24,33.90
2015,07,04,16,25,33.90
2015,07,04,16,26,33.80
2015,07,04,16,27,33.70
2015,07,04,16,28,33.70
2015,07,04,16,29,33.70
2015,07,04,16,30,33.70
2015,07,04,16,31,33.60
2015,07,04,16,32,33.60
2015,07,04,16,33,33.70
2015,07,04,16,34,33.70
2015,07,04,16,35,33.70
2015,07,04,16,36,33.70
2015,07,04,16,37,33.70
2015,07,04,16,38,33.70
2015,07,04,16,39,33.60
2015,07,04,16,40,33.50
2015,07,04,16,41,33.40
2015,07,04,16,42,33.40
2015,07,04,16,43,33.40
2015,07,04,16,44,33.40
2015,07,04,16,45,33.40
2015,07,04,16,46,33.40
2015,07,04,16,47,33.40
2015,07,04,16,48,33.50
2015,07,04,16,49,33.50
2015,07,04,16,50,33.50
2015,07,04,16,51,33.50
2015,07,04,16,52,33.40
2015,07,04,16,53,33.40
2015,07,04,16,54,33.40
2015,07,04,16,55,33.40
2015,07,04,16,56,33.40
2015,07,04,16,57,33.40
2015,07,04,16,58,33.50
2015,07,04,16,59,33.50
2015,07,04,17,00,33.60
2015,07,04,17,01,33.60
2015,07,04,17,02,33.60
2015,07,04,17,03,33.50
2015,07,04,17,04,33.40
2015,07,04,17,05,33.40
2015,07,04,17,06,33.30
2015,07,04,17,07,33.30
2015,07,04,17,08,33.30
2015,07,04,17,09,33.40
2015,07,04,17,10,33.40
2015,07,04,17,11,33.50
2015,07,04,17,12,33.40
2015,07,04,17,13,33.40
2015,07,04,17,14,33.40
2015,07,04,17,15,33.30
2015,07,04,17,16,33.30
2015,07,04,17,17,33.30
2015,07,04,17,18,33.30
2015,07,04,17,19,33.40
2015,07,04,17,20,33.50
2015,07,04,17,21,33.40
2015,07,04,17,22,33.40